Tracking 29892 objects as of 21-Nov-2024
HD Live streaming from Space Station
objects crossing your sky now

SL-12 R/B(2)

Track SL-12 R/B(2) now!


NORAD ID: 13954
Int'l Code: 1982-113F
Perigee: 36,465.2 km
Apogee: 36,671.4 km
Inclination: 10.4 °
Period: 1,475.8 minutes
Semi major axis: 42939 km
RCS: 2.5399 m2 (large)
Launch date: November 26, 1982
Source: Commonwealth of Independent States (former USSR) (CIS)
Launch site: TYURATAM MISSILE AND SPACE COMPLEX (TTMTR)

Note: This is a ROCKET BODY
Your satellite tracking list
FENGYUN 1C DEB
Track 1 satellite(s)




NASA's NSSDC Master Catalog

Two Line Element Set (TLE):
1 13954U 82113F   24325.58174167 -.00000097  00000-0  00000-0 0  9999
2 13954  10.4119 314.6415 0024013 272.3396  76.7249  0.97570959114288
Source of the keplerian elements: AFSPC